Content
SEND FEEDBACK

Daily
Averages
Monthly
Summary
United States of America

MALDEN, MISSOURI


Home > North America > United States > Missouri
Elevation: 295 feet     Latitude: 36 36N     Longitude: 089 59W

WEATHER
 
SELECT A DAY
Number of Records: 212,651;   Date Range: 1/1/95 - 12/18/14
 
SHARE

PRINT THIS DATA

[ ← Previous Day ]
WEATHER ALMANAC - JANUARY 17, 2014
[ Next Day → ]
[ °C ]   °F
Weather ElementAverageHighLow
Temperature26.6 °F35.1 °F (1:53 am)19.9 °F (11:53 pm)
Dewpoint10.5 °F23 °F (1:53 am)3.9 °F (7:53 am)
Humidity52 %78 % (11:53 pm)38 % (2:53 pm)
Barometer30.10 in30.19 in (9:53 pm)29.92 in (1:53 am)
Wind Speed9.1 mph19.6 mph (4:53 am)
Wind Gust31.1 mph (5:53 am)
Weather ElementAverage
Visibility10 mi
Wind DirectionSW (227.8 °)

Weather ElementTotal
Precipitation---
Heating Degree Days37.5 (Base 65)
Averaged from 23 records on January 17, 2014
WEATHER CONDITIONS BREAKOUT
WIND DIRECTION BREAKOUT
WEATHER BY HOUR - JANUARY 17, 2014
[ °C ]   °F
Local TimeTemperatureDewpointHumidityBarometerVisibilityWind DirectionWind SpeedGust SpeedPrecipitationEventsConditions
1:53 AM35.1 °F23.0 °F61 %29.92 in10.0 miWest (280°)11.5 mphMostly Cloudy
2:53 AM30.9 °F12.9 °F47 %29.95 in10.0 miNW (310°)16.1 mph0.00 inMostly Cloudy
3:53 AM28.9 °F10.9 °F47 %29.97 in10.0 miNW (310°)15.0 mph20.7 mphClear
4:53 AM28.0 °F10.0 °F47 %30.00 in10.0 miWNW (300°)19.6 mph25.3 mphMostly Cloudy
5:53 AM26.1 °F5.0 °F41 %30.04 in10.0 miWNW (290°)19.6 mph31.1 mphMostly Cloudy
6:53 AM24.1 °F5.0 °F44 %30.07 in10.0 miNW (320°)16.1 mphMostly Cloudy
7:53 AM23.0 °F3.9 °F44 %30.09 in10.0 miNW (310°)11.5 mph20.7 mphPartly Cloudy
8:53 AM24.1 °F5.0 °F44 %30.11 in10.0 miNW (320°)13.8 mphOvercast
9:53 AM26.1 °F7.0 °F44 %30.13 in10.0 miWNW (290°)6.9 mphOvercast
10:53 AM27.0 °F9.0 °F47 %30.12 in10.0 miWNW (290°)8.1 mphOvercast
11:53 AM27.0 °F10.9 °F51 %30.11 in10.0 miWNW (290°)10.4 mphOvercast
12:53 PM28.9 °F10.0 °F45 %30.09 in10.0 miWest (270°)13.8 mph19.6 mph0.00 inOvercast
1:53 PM28.9 °F8.1 °F41 %30.11 in10.0 miWest (280°)16.1 mph23.0 mphOvercast
2:53 PM30.0 °F7.0 °F38 %30.12 in10.0 miWNW (300°)12.7 mphOvercast
3:53 PM30.0 °F9.0 °F41 %30.15 in10.0 miWNW (300°)6.9 mphOvercast
4:53 PM30.0 °F9.0 °F41 %30.16 in10.0 miNorth (350°)3.5 mphOvercast
5:53 PM27.0 °F12.0 °F53 %30.17 in10.0 miCalmClear
6:53 PM26.1 °F12.9 °F58 %30.18 in10.0 miCalmClear
7:53 PM23.0 °F14.0 °F68 %30.18 in10.0 miCalmClear
8:53 PM23.0 °F15.1 °F72 %30.18 in10.0 miCalmClear
9:53 PM21.9 °F14.0 °F72 %30.19 in10.0 miSSW (200°)3.5 mphClear
10:53 PM21.9 °F14.0 °F72 %30.19 in10.0 miCalmClear
11:53 PM19.9 °F14.0 °F78 %30.17 in10.0 miSW (230°)3.5 mphClear
Hourly data recorded from KPOF, located miles away from Malden, Missouri







STORIES FROM OUR PARTNERS